sat.trackr.live / text

‹ back to catalog

STARLINK-5521

NORAD 56471 · 2023-064Z

PAYLOAD ACTIVE UNKNOWN

§ Identity

Operator
Country
US
Launch date
2023-05-10
Launch site
AFWTR
Launch vehicle
Mass (kg)
RCS (m²)

Purposes: comms

External: N2YO · Heavens-Above · Gunter

§ Orbital elements

Epoch: 2026-05-24T20:11:30.893856Z

Period
96.11 min
Inclination
69.9987°
Eccentricity
0.0003257
Mean motion
14.98328106 rev/d
Perigee alt
569.8 km
Apogee alt
574.3 km
Semi-major
6,950.2 km
B*
8.2879e-5
RAAN
292.5457°
Arg perigee
265.4146°
Mean anomaly
94.6641°
Rev number
16,714

§ Raw data

STARLINK-55211 56471U 23064Z   26144.84132979  .00000896  00000+0  82879-4 0  99982 56471  69.9987 292.5457 0003257 265.4146  94.6641 14.98328106167143

JSON: /api/v1/satellites/56471 · /tle

For live sub-satellite position, see the globe view (requires WebGL).

§ Visibility from observer

Set your observer location to see the next 7 days of passes ≥ 10°. The values pass through the URL so the page stays shareable.

No JS? Fill the form by hand. The geolocation button needs JavaScript.